TimeMDT,TemperatureF,Dew PointF,Humidity,Sea Level PressureIn,VisibilityMPH,Wind Direction,Wind SpeedMPH,Gust SpeedMPH,PrecipitationIn,Events,Conditions,WindDirDegrees,DateUTC
12:56 AM,36.9,25.2,63,30.17,10.0,ESE,8.1,-,N/A,,Clear,110,2013-04-27 06:56:00
1:56 AM,37.9,24.1,57,30.14,10.0,East,9.2,-,N/A,,Clear,100,2013-04-27 07:56:00
2:56 AM,37.9,24.1,57,30.13,10.0,East,11.5,-,N/A,,Clear,100,2013-04-27 08:56:00
3:56 AM,37.9,25.2,60,30.13,10.0,ESE,6.9,-,N/A,,Clear,120,2013-04-27 09:56:00
4:56 AM,36.0,25.2,65,30.14,10.0,Variable,3.5,-,N/A,,Clear,0,2013-04-27 10:56:00
5:56 AM,30.0,24.1,79,30.18,10.0,Calm,Calm,-,N/A,,Clear,0,2013-04-27 11:56:00
6:56 AM,30.0,25.2,82,30.19,10.0,ENE,3.5,-,N/A,,Clear,70,2013-04-27 12:56:00
7:56 AM,41.9,28.0,58,30.16,10.0,Calm,Calm,-,N/A,,Clear,0,2013-04-27 13:56:00
8:56 AM,50.9,28.0,41,30.17,10.0,SSW,5.8,-,N/A,,Clear,200,2013-04-27 14:56:00
9:56 AM,55.9,25.2,31,30.15,10.0,South,6.9,-,N/A,,Clear,170,2013-04-27 15:56:00
10:56 AM,57.9,23.0,26,30.14,10.0,South,4.6,-,N/A,,Clear,190,2013-04-27 16:56:00
11:56 AM,59.9,24.1,25,30.14,10.0,Variable,4.6,-,N/A,,Clear,0,2013-04-27 17:56:00
12:56 PM,61.9,24.1,24,30.12,10.0,SSW,5.8,-,N/A,,Scattered Clouds,200,2013-04-27 18:56:00
1:56 PM,63.0,23.0,22,30.09,10.0,Variable,4.6,-,N/A,,Clear,0,2013-04-27 19:56:00
2:56 PM,64.9,18.1,17,30.07,10.0,SW,16.1,21.9,N/A,,Clear,220,2013-04-27 20:56:00
3:56 PM,65.8,21.0,18,30.04,10.0,WSW,17.3,-,N/A,,Clear,240,2013-04-27 21:56:00
4:56 PM,64.9,23.0,20,30.02,10.0,SW,17.3,24.2,N/A,,Clear,230,2013-04-27 22:56:00
5:56 PM,63.9,27.1,25,30.03,10.0,WSW,20.7,26.5,N/A,,Clear,250,2013-04-27 23:56:00
6:56 PM,61.9,25.2,25,30.03,10.0,SW,11.5,-,N/A,,Clear,220,2013-04-28 00:56:00
7:56 PM,59.9,26.1,27,29.96,10.0,SSW,11.5,-,N/A,,Clear,200,2013-04-28 01:56:00
8:56 PM,57.9,24.1,27,29.93,10.0,South,12.7,-,N/A,,Clear,190,2013-04-28 02:56:00
9:56 PM,55.9,23.0,28,29.93,10.0,South,10.4,-,N/A,,Clear,170,2013-04-28 03:56:00
10:56 PM,54.0,22.1,29,29.92,10.0,SW,11.5,-,N/A,,Clear,220,2013-04-28 04:56:00
11:56 PM,52.0,23.0,32,29.91,10.0,South,12.7,-,N/A,,Clear,180,2013-04-28 05:56:00